[[{"header":{"parameterUnit":"m.s-1","parameterCategory":1,"la1":30.2991,"la2":30.254,"lo1":-89.0895,"lo2":-89.0444,"dy":0.0017,"dx":0.0017,"nx":28,"ny":28,"refTime":"2025-04-25T09:00:00:Z","depth":0,"parameterNumber":2,"parameterNumberName":"U-component_of_WINDS"},"data":[0,0,0,0,0,0,0,0,0,0,0,0,0,0,0,0,0,0,0,0,0,0,0,0,0,0,0,0,0,0,0,0,0,0,0,0,0,0,0,0,0,0,0,0,0,0,0,0,0,0,0,0,0,0,0,0,0,0,0.381,0.3811,0,0.3837,0.3838,0.3838,0.3845,0.3845,0.3844,0.3844,0.3871,0.3872,0.3873,0,0,0,0,0,0,0,0,0,0,0,0,0,0.3763,0.3764,0.381,0.3811,0.3811,0.3837,0.3838,0.3838,0.3845,0.3845,0.3844,0.3844,0.3871,0.3872,0.3873,0,0,0,0,0,0,0,0,0,0,0,0,0,0.3786,0.3764,0.381,0.3818,0.3818,0.3837,0.3838,0.3838,0.3845,0.3845,0.3844,0.3844,0.387,0.3872,0.3873,0.3886,0,0,0.3877,0.3877,0,0,0,0,0,0,0,0,0.3785,0.3788,0.3816,0.3817,0.3818,0.3837,0.3831,0.3854,0.3845,0.3835,0.3844,0.3844,0.386,0.3862,0.3868,0.3887,0.3888,0.3877,0.3878,0.3878,0.3879,0,0,0,0,0,0,0,0.3783,0.3787,0.3821,0.3817,0.3818,0.3819,0.3822,0.3835,0.3848,0.3836,0.3836,0.3839,0.386,0.3866,0.3868,0.3889,0.3877,0.3878,0.3879,0.3879,0.3919,0.3919,0,0,0,0,0,0,0.378,0.3785,0.382,0.3822,0.3801,0.382,0.3823,0.3831,0.3848,0.3851,0.384,0.384,0.3864,0.3867,0.3869,0.3885,0.3878,0.388,0.388,0.3919,0.3919,0.392,0,0,0,0,0,0,0.3779,0.3784,0.3819,0.3804,0.3808,0.3821,0.383,0.3832,0.3838,0.3851,0.3854,0.3843,0.3864,0.3867,0.3882,0.3886,0.388,0.3881,0.3919,0.3919,0.3919,0.3917,0,0,0,0,0,0,0.3778,0.3783,0.3789,0.3804,0.3809,0.3831,0.383,0.3833,0.384,0.3841,0.3855,0.3858,0.3864,0.388,0.3883,0.3888,0.3882,0.3918,0.3919,0.3919,0.3917,0.3917,0.3918,0,0,0,0,0,0.3776,0.3787,0.3789,0.3793,0.3816,0.3832,0.3835,0.3842,0.3841,0.3846,0.3854,0.3857,0.3885,0.3881,0.3885,0.389,0.3918,0.3919,0.3919,0.3917,0.3917,0.3918,0,0,0,0,0,0,0.3772,0.3789,0.3791,0.3807,0.3818,0.3833,0.384,0.3843,0.3854,0.3854,0.3863,0.3866,0.3879,0.3886,0.3881,0.3903,0.3901,0.3903,0.3898,0.3899,0.3899,0.3898,0.3883,0,0,0,0,0,0.3773,0.3784,0.3798,0.3811,0.3816,0.3827,0.3834,0.3839,0.385,0.3855,0.3864,0.3874,0.3885,0.3893,0.3904,0.3918,0.3921,0.3923,0.3924,0.3924,0.3925,0.3933,0.3934,0.3922,0.3922,0.3922,0,0,0.3774,0.3785,0.3792,0.381,0.3819,0.383,0.3831,0.3843,0.3851,0.3856,0.387,0.3877,0.3889,0.3903,0.391,0.391,0.3929,0.3925,0.3925,0.3926,0.3933,0.3934,0.3935,0.3922,0.3922,0.3922,0,0,0.3783,0.3793,0.3804,0.3813,0.3826,0.3833,0.3836,0.385,0.3855,0.3869,0.3874,0.3883,0.3902,0.391,0.3917,0.3928,0.3931,0.3932,0.3934,0.3941,0.3942,0.3943,0.3947,0.3948,0.3933,0.3933,0.3933,0,0.3784,0.3801,0.381,0.3821,0.3829,0.3834,0.3845,0.3853,0.3869,0.3874,0.3873,0.3897,0.3906,0.3921,0.3924,0.3929,0.3932,0.393,0.3942,0.3942,0.3943,0.3947,0.3948,0.3933,0.3933,0.3933,0.3933,0,0.3801,0.3813,0.382,0.3836,0.3844,0.3855,0.3865,0.3872,0.3876,0.3883,0.3897,0.3907,0.392,0.3924,0.3928,0.394,0.3939,0.394,0.3938,0.3944,0.3948,0.3949,0.3933,0.3933,0.3933,0.3933,0,0,0.3808,0.3828,0.3831,0.3837,0.3852,0.3861,0.3872,0.3885,0.3891,0.3901,0.391,0.3926,0.3927,0.3934,0.3939,0.3945,0.3953,0.3945,0.3945,0.3946,0.3966,0.3965,0.3966,0.3954,0.3955,0.3955,0.3964,0,0.3819,0.384,0.3847,0.3863,0.3874,0.3879,0.3889,0.3898,0.3905,0.3914,0.3921,0.3932,0.3932,0.3936,0.3943,0.395,0.3957,0.395,0.3962,0.3963,0.3959,0.3968,0.3968,0.3976,0.3966,0.3966,0.3966,0,0.3834,0.3845,0.3863,0.3876,0.388,0.3889,0.3901,0.391,0.3921,0.3925,0.3933,0.3937,0.3948,0.3946,0.3961,0.3956,0.3961,0.3966,0.3966,0.3968,0.3965,0.397,0.3979,0.3981,0.3969,0.3968,0.3968,0,0.3837,0.3856,0.3869,0.3875,0.389,0.3896,0.3903,0.3913,0.392,0.393,0.3935,0.3946,0.3952,0.396,0.3967,0.3965,0.3981,0.398,0.3984,0.3984,0.3988,0.3987,0.3998,0.3991,0.3991,0.3991,0.3991,0,0.3848,0.3859,0.3871,0.3879,0.389,0.3898,0.3909,0.3916,0.3925,0.3934,0.3939,0.3947,0.3956,0.3965,0.397,0.3981,0.3984,0.3987,0.3989,0.3987,0.3986,0.3991,0.399,0.3992,0.3992,0.3992,0.3992,0,0.3854,0.3862,0.3877,0.389,0.3894,0.3901,0.3912,0.392,0.3926,0.3937,0.394,0.395,0.3961,0.3969,0.3983,0.3986,0.3998,0.3999,0.3994,0.3995,0.3999,0.3999,0.4013,0.4015,0.4007,0.4007,0.4007,0,0.386,0.3869,0.3883,0.3889,0.3896,0.3906,0.3913,0.3921,0.3928,0.394,0.3946,0.3957,0.3966,0.3983,0.3991,0.4001,0.4003,0.4007,0.4005,0.4002,0.4003,0.4002,0.4003,0.4008,0.4008,0.4008,0.4008,0,0.3871,0.3874,0.3885,0.3896,0.3904,0.3914,0.3923,0.3928,0.3937,0.3945,0.3956,0.3963,0.3977,0.3988,0.3999,0.4005,0.4008,0.4008,0.401,0.4008,0.4005,0.4006,0.3995,0.4008,0.4008,0.4008,0.4008,0.4008,0.3877,0.3884,0.3895,0.3906,0.3914,0.3922,0.393,0.3937,0.3946,0.3959,0.3962,0.3974,0.3983,0.3998,0.4005,0.4013,0.4013,0.4015,0.4016,0.4016,0.4016,0.4004,0.4015,0.4015,0.4015,0.4015,0.4015,0,0.3887,0.3894,0.3904,0.3917,0.3925,0.3928,0.3938,0.3945,0.3955,0.3964,0.3972,0.3985,0.3995,0.4004,0.4014,0.4019,0.4021,0.4022,0.4021,0.4022,0.4016,0.4013,0.402,0.402,0.402,0.402,0.402,0.402,0.3893,0.3905,0.391,0.3926,0.3933,0.3944,0.395,0.3957,0.3965,0.3978,0.3987,0.3992,0.4001,0.4012,0.4021,0.4023,0.4027,0.4027,0.403,0.4024,0.4023,0.4022,0.402,0.4028,0.4028,0.4036,0.4036,0.4036]},{"header":{"parameterUnit":"m.s-1","parameterCategory":1,"la1":30.2991,"la2":30.254,"lo1":-89.0895,"lo2":-89.0444,"dy":0.0017,"dx":0.0017,"nx":28,"ny":28,"refTime":"2025-04-25T09:00:00:Z","depth":0,"parameterNumber":3,"parameterNumberName":"V-component_of_WINDS"},"data":[0,0,0,0,0,0,0,0,0,0,0,0,0,0,0,0,0,0,0,0,0,0,0,0,0,0,0,0,0,0,0,0,0,0,0,0,0,0,0,0,0,0,0,0,0,0,0,0,0,0,0,0,0,0,0,0,0,0,0.9859,0.9859,0,0.9848,0.9848,0.9848,0.9815,0.9815,0.9814,0.9813,0.9803,0.9804,0.9804,0,0,0,0,0,0,0,0,0,0,0,0,0,0.9852,0.9852,0.9859,0.9859,0.9859,0.9848,0.9848,0.9848,0.9815,0.9815,0.9814,0.9813,0.9803,0.9803,0.9804,0,0,0,0,0,0,0,0,0,0,0,0,0,0.985,0.9853,0.9859,0.9841,0.9839,0.9848,0.9848,0.9848,0.9816,0.9815,0.9813,0.9812,0.9803,0.9803,0.9804,0.9829,0,0,0.9806,0.9806,0,0,0,0,0,0,0,0,0.985,0.985,0.9844,0.9842,0.984,0.9832,0.9842,0.9842,0.9816,0.9825,0.9813,0.9812,0.9814,0.9813,0.9814,0.9829,0.9828,0.9806,0.9806,0.9807,0.9807,0,0,0,0,0,0,0,0.985,0.985,0.9855,0.9844,0.9842,0.9834,0.9832,0.9842,0.9825,0.9824,0.9821,0.9821,0.9812,0.9813,0.9813,0.9828,0.9806,0.9806,0.9807,0.9807,0.9864,0.9865,0,0,0,0,0,0,0.9853,0.9851,0.9855,0.9854,0.9843,0.9835,0.9833,0.9836,0.9825,0.9822,0.9822,0.9819,0.9813,0.9813,0.9813,0.9842,0.9807,0.9807,0.9807,0.9863,0.9864,0.9865,0,0,0,0,0,0,0.9853,0.9853,0.9855,0.9852,0.9851,0.9836,0.9839,0.9836,0.9837,0.9823,0.982,0.9825,0.9812,0.9812,0.9825,0.9841,0.9807,0.9808,0.9861,0.9863,0.9865,0.99,0,0,0,0,0,0,0.9853,0.9853,0.9863,0.9852,0.9852,0.9868,0.984,0.9837,0.9838,0.9834,0.9826,0.9824,0.9811,0.9825,0.9826,0.9841,0.9808,0.986,0.9862,0.9864,0.9898,0.9903,0.9908,0,0,0,0,0,0.9852,0.9873,0.9863,0.9864,0.9863,0.9869,0.9869,0.9854,0.9839,0.9848,0.984,0.9824,0.9839,0.9826,0.9828,0.9843,0.9859,0.9861,0.9864,0.9895,0.9902,0.9908,0,0,0,0,0,0,0.9887,0.9872,0.986,0.9879,0.9875,0.9864,0.9875,0.9861,0.9862,0.9859,0.984,0.9839,0.9855,0.985,0.9836,0.9867,0.9846,0.9849,0.987,0.9876,0.9881,0.9882,0.9809,0,0,0,0,0,0.9896,0.9902,0.9889,0.9906,0.9905,0.989,0.9892,0.9881,0.9877,0.9875,0.9868,0.9865,0.9869,0.9872,0.9875,0.9897,0.9895,0.9908,0.9913,0.9917,0.992,0.9932,0.9938,0.9874,0.9874,0.9874,0,0,0.9916,0.9909,0.9914,0.9913,0.9909,0.9916,0.9889,0.9898,0.9903,0.9877,0.9889,0.9884,0.9879,0.9897,0.9904,0.9893,0.9937,0.992,0.9924,0.9925,0.9935,0.9941,0.9946,0.9875,0.9875,0.9875,0,0,0.9956,0.9951,0.9965,0.9961,0.9956,0.9946,0.9949,0.994,0.9935,0.9947,0.9928,0.9933,0.9941,0.9938,0.9938,0.9977,0.9963,0.9978,1.0005,1.0016,1.0021,1.0026,1.004,1.0046,0.9981,0.9981,0.9982,0,0.9982,0.9991,0.9974,0.9984,0.9984,0.996,0.9975,0.9972,0.9968,0.9969,0.9957,0.9965,0.9961,0.9978,0.9987,0.9988,0.9991,0.998,1.0022,1.0026,1.003,1.0044,1.0049,0.9983,0.9983,0.9983,0.9983,0,1.0023,1.003,1.0042,1.0038,1.004,1.0052,1.0037,1.0041,1.0029,1.002,1.0033,1.0026,1.0028,1.0031,1.002,1.0047,1.004,1.0025,1.0004,1.0038,1.0051,1.0056,0.9986,0.9986,0.9985,0.9985,0,0,1.0085,1.0072,1.0076,1.0074,1.0066,1.0071,1.0082,1.0083,1.0087,1.0085,1.0094,1.0101,1.0087,1.0087,1.0075,1.0085,1.0117,1.0069,1.0068,1.0078,1.0147,1.0159,1.0165,1.0107,1.0108,1.0109,1.0147,0,1.0124,1.0141,1.0126,1.0147,1.0153,1.0131,1.014,1.0137,1.0129,1.0133,1.0125,1.013,1.0111,1.0111,1.012,1.0111,1.0131,1.0108,1.0116,1.0116,1.0118,1.0171,1.0184,1.0221,1.0152,1.0153,1.0154,0,1.0171,1.0171,1.0192,1.0183,1.0185,1.0194,1.0194,1.0198,1.0193,1.0187,1.0187,1.0172,1.0183,1.0161,1.0176,1.0161,1.0163,1.0159,1.016,1.0161,1.0138,1.0174,1.0232,1.0238,1.0161,1.016,1.016,0,1.0215,1.022,1.0233,1.0232,1.0221,1.0228,1.0224,1.0218,1.022,1.022,1.0221,1.0222,1.0223,1.0224,1.0211,1.0196,1.0227,1.0205,1.0223,1.0223,1.0231,1.0231,1.0291,1.0231,1.0231,1.0231,1.0231,0,1.026,1.0274,1.0253,1.0261,1.0276,1.0259,1.0274,1.0268,1.0263,1.027,1.025,1.0258,1.0239,1.0244,1.0233,1.0247,1.0248,1.0243,1.024,1.0245,1.0246,1.0247,1.0245,1.0233,1.0232,1.0232,1.0232,0,1.0312,1.0298,1.0311,1.03,1.0297,1.0309,1.0299,1.0307,1.0298,1.0307,1.0308,1.0294,1.0299,1.0285,1.0288,1.0281,1.0301,1.0294,1.0303,1.0301,1.032,1.0319,1.0384,1.0392,1.0327,1.0327,1.0328,0,1.0342,1.0352,1.0341,1.0345,1.0342,1.0347,1.0348,1.0331,1.0334,1.0329,1.0337,1.0341,1.0343,1.0352,1.0342,1.0345,1.0338,1.036,1.0338,1.0343,1.0339,1.0339,1.034,1.0365,1.0366,1.0366,1.0367,0,1.0396,1.0389,1.0392,1.0392,1.0395,1.0394,1.0393,1.0396,1.0378,1.0382,1.0387,1.0388,1.0391,1.0395,1.0395,1.0391,1.0377,1.0374,1.0378,1.0384,1.0389,1.0387,1.0316,1.0373,1.0372,1.0372,1.0371,1.0371,1.0439,1.0447,1.0441,1.0445,1.0442,1.044,1.0447,1.0438,1.0442,1.0443,1.0433,1.044,1.0435,1.0434,1.0431,1.0437,1.0427,1.0433,1.0435,1.0437,1.044,1.0388,1.0437,1.0437,1.0436,1.0436,1.0436,0,1.0493,1.0488,1.0492,1.049,1.0493,1.0478,1.0475,1.0479,1.0485,1.0482,1.0484,1.049,1.0494,1.0484,1.0486,1.0493,1.0486,1.0494,1.0494,1.0493,1.0449,1.0445,1.0499,1.0499,1.0499,1.0499,1.0499,1.0499,1.0522,1.0535,1.0527,1.0539,1.0534,1.054,1.054,1.0539,1.0536,1.0544,1.0546,1.054,1.0534,1.0536,1.0539,1.0536,1.0538,1.0548,1.0543,1.0502,1.0496,1.049,1.0487,1.0549,1.0549,1.0587,1.0587,1.0588]}]]